TimeEST,TemperatureF,Dew PointF,Humidity,Sea Level PressureIn,VisibilityMPH,Wind Direction,Wind SpeedMPH,Gust SpeedMPH,PrecipitationIn,Events,Conditions,WindDirDegrees,DateUTC
12:15 AM,35.2,15.1,44,30.27,10.0,NNW,15.0,21.9,N/A,,Mostly Cloudy,340,2013-11-24 05:15:00
12:35 AM,34.9,14.0,42,30.28,10.0,NNW,8.1,-,N/A,,Overcast,340,2013-11-24 05:35:00
12:55 AM,34.2,14.0,44,30.28,10.0,NNW,12.7,21.9,N/A,,Overcast,340,2013-11-24 05:55:00
1:15 AM,33.4,12.0,41,30.28,10.0,North,13.8,25.3,N/A,,Overcast,350,2013-11-24 06:15:00
1:35 AM,32.9,12.2,42,30.28,10.0,NNW,17.3,20.7,N/A,,Mostly Cloudy,330,2013-11-24 06:35:00
1:55 AM,32.2,11.3,42,30.28,10.0,NNW,13.8,-,N/A,,Scattered Clouds,330,2013-11-24 06:55:00
2:15 AM,32.0,11.5,43,30.30,10.0,NNW,15.0,24.2,N/A,,Mostly Cloudy,330,2013-11-24 07:15:00
2:35 AM,31.6,12.4,45,30.30,10.0,NNW,18.4,25.3,N/A,,Mostly Cloudy,330,2013-11-24 07:35:00
2:55 AM,31.1,10.8,43,30.30,10.0,NNW,18.4,24.2,N/A,,Mostly Cloudy,340,2013-11-24 07:55:00
3:35 AM,30.2,11.3,45,30.33,10.0,NNW,15.0,18.4,N/A,,Mostly Cloudy,340,2013-11-24 08:35:00
3:55 AM,30.0,10.6,44,30.32,10.0,NNW,23.0,28.8,N/A,,Mostly Cloudy,330,2013-11-24 08:55:00
4:15 AM,29.1,9.3,44,30.33,10.0,NNW,16.1,23.0,N/A,,Scattered Clouds,340,2013-11-24 09:15:00
4:35 AM,28.8,9.3,44,30.34,10.0,NNW,13.8,26.5,N/A,,Clear,330,2013-11-24 09:35:00
4:55 AM,28.4,8.6,43,30.35,10.0,NNW,10.4,17.3,N/A,,Scattered Clouds,330,2013-11-24 09:55:00
5:15 AM,27.7,9.1,46,30.35,10.0,NW,6.9,-,N/A,,Mostly Cloudy,320,2013-11-24 10:15:00
5:35 AM,27.5,9.1,46,30.36,10.0,NNW,10.4,-,N/A,,Scattered Clouds,340,2013-11-24 10:35:00
5:55 AM,27.5,9.1,46,30.37,10.0,NNW,10.4,-,N/A,,Mostly Cloudy,330,2013-11-24 10:55:00
6:15 AM,27.3,10.0,48,30.38,10.0,NW,8.1,-,N/A,,Mostly Cloudy,320,2013-11-24 11:15:00
6:35 AM,27.3,11.3,51,30.39,10.0,NW,16.1,21.9,N/A,,Overcast,320,2013-11-24 11:35:00
6:55 AM,26.4,10.4,51,30.40,10.0,NW,12.7,-,N/A,,Overcast,310,2013-11-24 11:55:00
7:15 AM,25.7,10.2,52,30.42,10.0,NW,12.7,-,N/A,,Scattered Clouds,320,2013-11-24 12:15:00
7:35 AM,25.7,9.7,51,30.43,10.0,NNW,9.2,-,N/A,,Clear,330,2013-11-24 12:35:00
7:55 AM,26.4,9.5,49,30.44,10.0,NW,15.0,19.6,N/A,,Clear,320,2013-11-24 12:55:00
8:15 AM,27.0,8.6,46,30.45,10.0,NW,15.0,20.7,N/A,,Clear,320,2013-11-24 13:15:00
8:35 AM,27.5,7.7,43,30.46,10.0,NW,11.5,-,N/A,,Clear,320,2013-11-24 13:35:00
8:55 AM,27.5,6.8,42,30.47,10.0,NW,16.1,23.0,N/A,,Clear,320,2013-11-24 13:55:00
9:15 AM,28.0,6.1,39,30.47,10.0,North,15.0,20.7,N/A,,Clear,350,2013-11-24 14:15:00
9:35 AM,28.9,6.4,39,30.48,10.0,NNW,13.8,23.0,N/A,,Clear,340,2013-11-24 14:35:00
9:55 AM,29.3,5.7,37,30.49,10.0,NW,18.4,21.9,N/A,,Clear,320,2013-11-24 14:55:00
10:15 AM,29.7,4.6,35,30.50,10.0,NNW,15.0,23.0,N/A,,Clear,340,2013-11-24 15:15:00
10:35 AM,30.2,3.9,33,30.50,10.0,NNW,13.8,21.9,N/A,,Clear,340,2013-11-24 15:35:00
10:55 AM,30.9,4.6,33,30.50,10.0,NW,15.0,19.6,N/A,,Clear,320,2013-11-24 15:55:00
11:15 AM,31.3,3.6,31,30.49,10.0,NNW,11.5,23.0,N/A,,Clear,340,2013-11-24 16:15:00
11:35 AM,31.6,3.2,30,30.49,10.0,NNW,15.0,-,N/A,,Clear,340,2013-11-24 16:35:00
11:55 AM,32.0,3.0,29,30.48,10.0,NNW,12.7,21.9,N/A,,Clear,340,2013-11-24 16:55:00
12:15 PM,32.2,3.0,29,30.47,10.0,North,13.8,19.6,N/A,,Clear,350,2013-11-24 17:15:00
12:35 PM,32.5,2.8,28,30.46,10.0,NNW,13.8,19.6,N/A,,Clear,330,2013-11-24 17:35:00
12:55 PM,33.3,3.2,28,30.46,10.0,NNW,13.8,19.6,N/A,,Clear,340,2013-11-24 17:55:00
1:15 PM,33.4,1.9,26,30.45,10.0,NW,11.5,17.3,N/A,,Clear,310,2013-11-24 18:15:00
1:35 PM,33.8,1.6,26,30.45,10.0,NNW,11.5,20.7,N/A,,Clear,330,2013-11-24 18:35:00
1:55 PM,34.3,1.8,25,30.45,10.0,WNW,11.5,16.1,N/A,,Clear,300,2013-11-24 18:55:00
2:15 PM,34.2,0.7,24,30.44,10.0,NW,10.4,17.3,N/A,,Clear,310,2013-11-24 19:15:00
2:35 PM,34.2,0.9,24,30.44,10.0,NW,11.5,18.4,N/A,,Clear,320,2013-11-24 19:35:00
2:55 PM,34.5,0.5,24,30.44,10.0,NNW,10.4,16.1,N/A,,Clear,340,2013-11-24 19:55:00
3:15 PM,34.3,-0.0,23,30.45,10.0,NW,8.1,17.3,N/A,,Clear,320,2013-11-24 20:15:00
3:35 PM,34.3,0.3,24,30.45,10.0,NNW,12.7,17.3,N/A,,Clear,330,2013-11-24 20:35:00
3:55 PM,33.8,-0.2,24,30.45,10.0,NNW,11.5,-,N/A,,Clear,340,2013-11-24 20:55:00
4:15 PM,32.9,-1.3,23,30.45,10.0,NNW,12.7,-,N/A,,Clear,330,2013-11-24 21:15:00
4:35 PM,32.0,-0.4,25,30.45,10.0,NW,12.7,18.4,N/A,,Clear,320,2013-11-24 21:35:00
4:55 PM,31.1,-0.9,25,30.45,10.0,NNW,6.9,-,N/A,,Clear,340,2013-11-24 21:55:00
5:15 PM,30.9,-1.5,25,30.46,10.0,NNW,9.2,-,N/A,,Clear,340,2013-11-24 22:15:00
5:35 PM,29.8,-0.6,27,30.47,10.0,NNW,5.8,-,N/A,,Clear,330,2013-11-24 22:35:00
5:55 PM,28.8,-0.0,29,30.47,10.0,NW,4.6,-,N/A,,Clear,320,2013-11-24 22:55:00
6:15 PM,28.4,0.5,30,30.48,10.0,NW,9.2,-,N/A,,Clear,320,2013-11-24 23:15:00
6:35 PM,28.4,0.1,30,30.48,10.0,NNW,6.9,-,N/A,,Clear,330,2013-11-24 23:35:00
6:55 PM,28.0,0.3,30,30.49,10.0,NW,4.6,-,N/A,,Clear,310,2013-11-24 23:55:00
7:15 PM,27.0,1.4,33,30.50,10.0,NW,8.1,-,N/A,,Clear,320,2013-11-25 00:15:00
7:35 PM,27.5,1.6,33,30.50,10.0,NW,6.9,-,N/A,,Clear,320,2013-11-25 00:35:00
7:55 PM,27.0,1.6,34,30.51,10.0,NW,4.6,-,N/A,,Clear,310,2013-11-25 00:55:00
8:15 PM,25.7,3.2,38,30.51,10.0,Calm,Calm,-,N/A,,Clear,0,2013-11-25 01:15:00
8:35 PM,25.7,3.4,38,30.51,10.0,NNW,4.6,-,N/A,,Clear,330,2013-11-25 01:35:00
8:55 PM,24.6,5.2,44,30.52,10.0,NNW,5.8,-,N/A,,Clear,330,2013-11-25 01:55:00
9:15 PM,25.0,4.6,42,30.53,10.0,NW,3.5,-,N/A,,Clear,310,2013-11-25 02:15:00
9:35 PM,23.2,5.7,47,30.54,10.0,Calm,Calm,-,N/A,,Clear,0,2013-11-25 02:35:00
9:55 PM,23.0,7.5,52,30.54,10.0,NW,3.5,-,N/A,,Clear,310,2013-11-25 02:55:00
10:15 PM,22.1,8.1,55,30.54,10.0,Calm,Calm,-,N/A,,Clear,0,2013-11-25 03:15:00
10:35 PM,22.5,7.7,53,30.55,10.0,Calm,Calm,-,N/A,,Clear,0,2013-11-25 03:35:00
10:55 PM,21.6,8.4,57,30.54,10.0,NW,6.9,-,N/A,,Clear,320,2013-11-25 03:55:00
11:15 PM,22.5,6.8,51,30.55,10.0,Calm,Calm,-,N/A,,Clear,0,2013-11-25 04:15:00
11:35 PM,21.7,8.6,57,30.55,10.0,Calm,Calm,-,N/A,,Clear,0,2013-11-25 04:35:00
11:55 PM,20.7,9.1,61,30.55,10.0,Calm,Calm,-,N/A,,Clear,0,2013-11-25 04:55:00